SCP
0 0 0 0 0 0 0 0 0 0 0 0 -0 -0 -0 -0 -0 -0 -0 -0 0 0
0 0 0 0 0 0 0 0 0 0 0 0 0 -0 -0 -0 -0 -0 -0 -0 0 0
0 0 0 0 0 0 0 0 0 0 0 0 0 0 -0 -0 -0 0 0 -0 0 0
0 0 0 0 0 0 0 0 0 0 0 0 0 0 0 0 0 0 0 -0 0 0
0 0 0 0 0 0 0 0 0 0 0 0 0 0 0 0 0 0 0 0 0 0
0 0 0 0 0 0 0 0 0 0 0 0 0 0 0 0 0 0 0 0 0 0
0 0 0 0 0 0 0 0 0 0 0 0 0 0 0 0 0 0 0 0 0 0
0 0 0 0 0 0 0 0 0 0 0 0 0 0 0 0 0 0 0 0 0 0
0 0 0 0 0 0 0 0 0 0 0 0 0 0 0 0 0 0 0 0 0 0
0 0 0 0 0 0 0 0 0 0 0 0 0 0 0 0 0 0 0 0 0 0
0 0 0 0 0 0 0 0 0 0 0 0 0 0 0 0 0 0 0 0 0 0
0 0 0 0 0 0 0 0 0 0 0 0 0 0 0 0 0 0 0 0 0 0
0 0 0 0 0 0 0 0 0 0 0 0 0 0 0 0 0 0 0 0 0 0
0 0 0 0 0 0 0 0 0 0 0 0 0 0 0 0 0 0 0 0 0 0
Wind_Speed_500mb
52 48 41 46 51 54 52 53 50 52 51 43 36 34 35 43 38 34 31 40 62 60
56 53 46 47 49 55 52 49 50 54 54 48 42 37 38 43 38 30 34 47 61 49
58 55 48 47 51 53 52 49 52 57 60 54 46 40 42 42 42 41 46 52 52 45
59 57 53 51 50 52 49 51 57 59 61 61 52 47 45 41 48 51 50 45 41 37
60 61 56 53 53 52 50 51 59 59 61 63 57 51 46 45 49 54 54 47 41 43
62 62 58 56 52 53 53 50 58 61 65 67 62 58 53 48 47 53 53 49 45 40
64 64 61 56 55 53 54 52 58 61 65 70 69 62 62 55 52 49 48 51 52 45
63 62 63 60 58 57 55 55 54 59 64 67 72 68 65 61 56 54 53 54 54 52
60 61 63 62 61 60 59 57 58 58 63 65 73 72 68 63 61 57 54 56 58 54
60 63 64 65 64 64 62 61 59 62 62 68 71 73 72 75 71 65 63 63 59 58
62 62 61 62 67 66 65 63 62 60 64 59 65 66 70 73 79 78 77 71 67 62
64 65 65 65 67 66 67 64 64 64 66 66 61 57 61 65 73 79 77 76 73 70
61 66 68 66 67 68 69 68 63 64 66 66 66 65 65 67 75 78 78 78 74 71
56 60 62 64 65 65 67 67 67 65 66 66 65 63 62 66 76 80 78 78 79 76
Wind_Direction_500mb
202 202 205 202 197 193 191 190 187 181 182 182 179 172 175 168 171 168 178 186 176 172
201 201 202 202 201 195 195 192 189 182 175 179 179 175 179 183 177 176 170 174 179 182
204 201 201 201 203 198 197 197 197 191 182 185 184 184 183 188 189 180 169 172 182 195
205 202 202 201 205 201 198 197 195 196 192 190 187 186 188 192 187 183 183 185 191 197
208 204 204 202 205 203 200 200 197 198 198 193 187 190 191 196 196 189 190 196 202 203
210 207 207 204 205 206 205 206 202 204 205 198 192 193 199 200 200 197 201 205 204 208
213 210 207 207 207 208 210 208 207 207 206 201 198 199 201 202 200 203 207 211 212 218
216 212 212 212 211 209 212 213 213 211 209 210 205 204 205 208 206 207 213 217 219 222
217 215 217 214 212 213 213 212 211 213 214 213 213 211 214 218 219 218 224 224 221 222
219 216 219 219 214 214 216 215 219 217 218 220 222 219 218 217 223 226 229 227 228 229
221 217 221 221 218 216 218 218 219 221 222 224 223 223 223 222 223 226 229 233 237 239
223 219 220 221 220 220 219 221 225 225 226 228 228 224 222 223 224 225 230 231 236 238
229 224 222 223 223 223 222 224 227 234 233 234 236 232 227 228 230 231 231 232 235 236
234 231 230 227 228 227 228 229 230 235 237 239 238 239 236 232 232 233 235 235 237 240
Wind_Speed_850mb
52 48 41 46 51 54 52 53 50 52 51 43 36 34 35 43 38 34 31 40 62 60
56 53 46 47 49 55 52 49 50 54 54 48 42 37 38 43 38 30 34 47 61 49
58 55 48 47 51 53 52 49 52 57 60 54 46 40 42 42 42 41 46 52 52 45
59 57 53 51 50 52 49 51 57 59 61 61 52 47 45 41 48 51 50 45 41 37
60 61 56 53 53 52 50 51 59 59 61 63 57 51 46 45 49 54 54 47 41 43
62 62 58 56 52 53 53 50 58 61 65 67 62 58 53 48 47 53 53 49 45 40
64 64 61 56 55 53 54 52 58 61 65 70 69 62 62 55 52 49 48 51 52 45
63 62 63 60 58 57 55 55 54 59 64 67 72 68 65 61 56 54 53 54 54 52
60 61 63 62 61 60 59 57 58 58 63 65 73 72 68 63 61 57 54 56 58 54
60 63 64 65 64 64 62 61 59 62 62 68 71 73 72 75 71 65 63 63 59 58
62 62 61 62 67 66 65 63 62 60 64 59 65 66 70 73 79 78 77 71 67 62
64 65 65 65 67 66 67 64 64 64 66 66 61 57 61 65 73 79 77 76 73 70
61 66 68 66 67 68 69 68 63 64 66 66 66 65 65 67 75 78 78 78 74 71
56 60 62 64 65 65 67 67 67 65 66 66 65 63 62 66 76 80 78 78 79 76
Wind_Direction_850mb
202 202 205 202 197 193 191 190 187 181 182 182 179 172 175 168 171 168 178 186 176 172
201 201 202 202 201 195 195 192 189 182 175 179 179 175 179 183 177 176 170 174 179 182
204 201 201 201 203 198 197 197 197 191 182 185 184 184 183 188 189 180 169 172 182 195
205 202 202 201 205 201 198 197 195 196 192 190 187 186 188 192 187 183 183 185 191 197
208 204 204 202 205 203 200 200 197 198 198 193 187 190 191 196 196 189 190 196 202 203
210 207 207 204 205 206 205 206 202 204 205 198 192 193 199 200 200 197 201 205 204 208
213 210 207 207 207 208 210 208 207 207 206 201 198 199 201 202 200 203 207 211 212 218
216 212 212 212 211 209 212 213 213 211 209 210 205 204 205 208 206 207 213 217 219 222
217 215 217 214 212 213 213 212 211 213 214 213 213 211 214 218 219 218 224 224 221 222
219 216 219 219 214 214 216 215 219 217 218 220 222 219 218 217 223 226 229 227 228 229
221 217 221 221 218 216 218 218 219 221 222 224 223 223 223 222 223 226 229 233 237 239
223 219 220 221 220 220 219 221 225 225 226 228 228 224 222 223 224 225 230 231 236 238
229 224 222 223 223 223 222 224 227 234 233 234 236 232 227 228 230 231 231 232 235 236
234 231 230 227 228 227 228 229 230 235 237 239 238 239 236 232 232 233 235 235 237 240